TimeEDT,TemperatureF,Dew PointF,Humidity,Sea Level PressureIn,VisibilityMPH,Wind Direction,Wind SpeedMPH,Gust SpeedMPH,PrecipitationIn,Events,Conditions,WindDirDegrees,DateUTC
12:53 AM,82.0,79.0,90,30.16,6.0,Calm,Calm,-,0.09,Rain,Rain,0,2012-10-04 04:53:00
1:22 AM,80.6,78.8,94,30.15,7.0,South,4.6,-,0.04,,Overcast,180,2012-10-04 05:22:00
1:53 AM,81.0,78.1,91,30.13,10.0,Calm,Calm,-,0.04,Rain,Light Rain,0,2012-10-04 05:53:00
2:00 AM,80.6,78.8,94,30.13,10.0,Calm,Calm,-,0.00,,Scattered Clouds,0,2012-10-04 06:00:00
2:53 AM,79.0,73.9,84,30.12,10.0,North,4.6,-,0.00,Rain,Light Rain,10,2012-10-04 06:53:00
3:53 AM,77.0,73.0,88,30.11,10.0,NE,5.8,-,0.01,,Overcast,50,2012-10-04 07:53:00
4:53 AM,79.0,75.0,88,30.11,10.0,ENE,5.8,-,0.01,,Overcast,70,2012-10-04 08:53:00
5:53 AM,79.0,75.9,90,30.12,10.0,ENE,4.6,-,0.00,,Mostly Cloudy,70,2012-10-04 09:53:00
6:53 AM,80.1,75.9,87,30.12,10.0,East,6.9,-,0.02,,Scattered Clouds,90,2012-10-04 10:53:00
7:53 AM,81.0,75.9,85,30.13,10.0,East,9.2,-,N/A,,Scattered Clouds,100,2012-10-04 11:53:00
8:53 AM,84.0,77.0,79,30.14,10.0,East,9.2,-,N/A,,Scattered Clouds,90,2012-10-04 12:53:00
9:48 AM,86.0,78.8,79,30.15,10.0,ESE,9.2,-,0.00,,Mostly Cloudy,110,2012-10-04 13:48:00
9:53 AM,86.0,77.0,74,30.15,10.0,ESE,11.5,-,0.00,,Mostly Cloudy,120,2012-10-04 13:53:00
10:53 AM,87.1,75.9,69,30.15,10.0,ESE,13.8,-,N/A,,Mostly Cloudy,120,2012-10-04 14:53:00
11:53 AM,88.0,75.9,67,30.16,10.0,ESE,13.8,-,N/A,,Mostly Cloudy,120,2012-10-04 15:53:00
12:53 PM,86.0,75.9,72,30.14,10.0,ESE,10.4,-,N/A,,Mostly Cloudy,120,2012-10-04 16:53:00
1:53 PM,90.0,75.0,61,30.12,10.0,East,11.5,-,N/A,,Mostly Cloudy,100,2012-10-04 17:53:00
2:53 PM,88.0,73.9,63,30.09,10.0,SSE,6.9,-,N/A,,Mostly Cloudy,150,2012-10-04 18:53:00
3:53 PM,87.1,75.0,67,30.08,10.0,East,8.1,-,N/A,,Mostly Cloudy,80,2012-10-04 19:53:00
4:53 PM,87.1,73.9,65,30.06,10.0,East,10.4,-,N/A,,Mostly Cloudy,80,2012-10-04 20:53:00
5:53 PM,84.9,73.9,69,30.07,10.0,East,9.2,-,N/A,,Mostly Cloudy,80,2012-10-04 21:53:00
6:53 PM,84.0,75.0,74,30.08,10.0,NE,5.8,-,N/A,,Mostly Cloudy,50,2012-10-04 22:53:00
7:53 PM,84.0,75.0,74,30.09,10.0,NE,8.1,-,N/A,,Mostly Cloudy,50,2012-10-04 23:53:00
8:53 PM,82.9,75.0,77,30.10,10.0,NE,8.1,-,N/A,,Mostly Cloudy,50,2012-10-05 00:53:00
9:53 PM,82.9,75.9,79,30.13,10.0,NE,4.6,-,N/A,,Mostly Cloudy,50,2012-10-05 01:53:00
10:53 PM,82.9,75.9,79,30.12,10.0,NE,4.6,-,N/A,,Mostly Cloudy,50,2012-10-05 02:53:00
11:53 PM,82.0,75.9,82,30.10,10.0,NE,4.6,-,N/A,,Mostly Cloudy,50,2012-10-05 03:53:00